SCP
0 0 0 0 0 0 0 0 0 0 0 0 0 0 0 0 0 0 0 0 0 0 0 0 0 0 0 0 0 0 0 0 0 0 0 0 0 0 0 0 0 0 0
0 0 0 0 0 0 0 0 0 0 0 0 0 0 0 0 0 0 0 0 0 0 0 0 0 0 0 0 0 0 0 0 0 0 0 0 0 0 0 0 0 0 0
0 0 0 0 0 0 0 0 0 0 0 0 0 0 0 0 0 0 0 0 0 0 0 0 0 0 0 0 0 0 0 0 0 0 0 0 0 0 0 0 0 0 0
0 0 0 0 0 0 0 0 0 0 0 0 0 0 0 0 0 0 0 0 0 0 0 0 0 0 0 0 0 0 0 0 0 0 0 0 0 0 0 0 0 0 0
0 0 0 0 0 0 0 0 0 0 0 0 0 0 0 0 0 0 0 0 0 0 0 0 0 0 0 0 0 0 0 0 0 0 0 0 0 0 0 0 0 0 0
0 0 0 0 0 0 0 0 0 0 0 0 0 0 0 0 0 0 0 0 0 0 0 0 0 0 0 0 0 0 0 0 0 0 0 0 0 0 0 0 0 0 0
0 0 0 0 0 0 0 0 0 0 0 0 0 0 0 0 0 0 0 0 0 0 0 0 0 0 0 0 0 0 0 0 0 0 0 0 0 0 0 0 0 0 0
0 0 0 0 0 0 0 1 1 1 0 0 0 0 0 0 0 0 0 0 0 0 0 0 0 0 0 0 0 0 0 0 0 0 0 0 0 0 0 0 0 0 0
0 0 0 0 0 0 0 0 1 1 1 1 0 0 0 0 0 0 0 0 0 0 0 0 0 0 0 0 0 0 0 0 0 0 0 0 0 0 0 0 0 0 0
0 0 0 0 0 0 0 0 1 1 1 1 1 0 0 0 0 0 0 0 0 0 0 0 0 0 0 0 0 0 0 0 0 0 0 0 0 0 0 0 0 0 0
0 0 0 0 0 0 0 0 1 1 1 1 1 0 0 0 0 0 0 0 0 0 0 0 0 0 0 0 0 0 0 0 0 0 0 0 0 0 0 0 0 0 0
0 0 0 0 0 0 0 1 1 1 1 1 1 0 0 0 0 0 0 0 0 0 0 0 0 0 0 0 0 0 0 0 0 0 0 0 0 0 0 0 0 0 0
0 0 0 0 0 0 1 1 1 1 1 1 1 1 0 0 0 0 0 0 0 0 0 0 0 0 0 0 0 0 0 0 0 0 0 0 0 0 -0 -0 -0 0 0
0 0 0 0 0 1 1 1 1 1 1 1 1 1 0 0 0 0 0 0 0 0 0 0 0 0 0 0 0 0 0 0 0 0 0 0 0 -0 -0 -0 -0 0 0
0 0 0 1 1 1 1 1 1 1 1 1 1 1 1 0 0 0 0 0 0 0 0 0 0 0 0 0 0 0 0 0 -0 -0 -0 -0 -0 -0 -0 -0 -0 0 0
1 1 1 1 1 1 1 1 1 1 1 1 1 1 1 1 0 0 0 0 0 0 0 0 0 0 0 0 0 0 0 0 -0 -0 -0 -0 -0 -0 -0 -0 -0 0 0
1 1 1 1 1 1 1 1 1 1 1 1 1 1 1 1 1 1 0 0 0 0 0 0 0 0 0 0 0 0 0 0 0 0 0 -0 -0 0 0 0 0 0 0
1 1 1 1 1 1 1 1 1 1 1 1 1 1 1 1 1 1 1 1 1 1 1 0 0 0 0 0 0 0 0 0 0 0 0 0 0 0 0 0 0 0 0
1 1 1 1 1 1 1 1 1 1 1 1 1 1 1 1 1 1 1 1 1 1 1 1 0 0 0 0 0 0 0 0 0 0 0 0 0 0 0 0 0 0 0
1 1 1 1 1 1 1 1 1 1 1 1 1 1 0 0 0 1 1 1 1 1 1 1 0 0 0 0 0 0 0 0 0 0 0 0 0 0 0 0 0 0 0
1 1 1 1 1 1 1 1 1 1 1 1 0 0 0 0 0 0 0 1 1 1 1 0 0 0 0 0 0 0 0 0 0 0 0 0 0 0 0 0 0 0 0
1 1 1 1 1 1 1 1 1 1 1 0 0 0 0 0 0 0 0 0 0 0 0 0 0 0 0 0 0 0 0 0 0 0 0 0 0 0 0 0 0 0 0
1 1 2 1 1 1 1 1 1 0 0 0 0 0 0 0 0 0 0 0 0 0 0 0 0 0 0 0 0 0 0 0 0 0 0 0 0 0 0 0 0 0 0
1 1 1 1 1 1 1 1 0 0 0 0 0 0 0 0 0 0 0 0 0 -0 -0 -0 0 0 0 0 0 0 0 0 0 0 0 0 0 0 0 0 0 0 0
1 1 1 1 1 1 1 0 0 0 0 0 0 0 0 0 -0 0 0 0 0 0 0 0 0 0 0 0 0 0 0 0 0 0 0 0 0 0 0 0 0 0 0
1 1 1 1 1 1 0 0 0 0 0 0 0 0 0 0 0 0 0 0 0 0 0 0 0 0 0 0 0 0 0 0 0 0 0 0 0 0 0 0 0 0 0
Wind_Speed
7 8 8 8 7 6 6 5 4 3 3 2 2 2 1 1 1 1 3 3 3 4 4 3 2 2 2 2 2 2 2 1 2 3 2 2 2 1 1 2 2 2 3
7 8 7 7 7 7 6 5 5 4 3 2 2 2 2 2 2 1 2 3 3 3 4 3 2 2 3 3 2 2 2 1 2 3 2 2 2 2 1 1 2 2 2
11 10 9 8 8 7 7 6 5 4 3 3 2 2 3 2 2 1 1 1 3 3 3 3 3 2 3 3 3 3 4 2 0 1 3 3 2 1 1 0 0 1 1
10 10 10 9 9 8 7 6 5 4 3 3 3 3 3 2 2 1 1 1 2 2 3 3 3 3 2 3 3 3 3 3 1 1 0 2 3 3 0 1 1 0 1
11 11 11 10 9 9 8 6 5 4 3 3 4 4 3 2 2 2 2 2 1 1 2 3 3 3 2 2 2 2 2 2 2 2 1 1 1 2 3 1 1 1 1
11 10 9 9 8 8 7 7 6 4 4 4 4 4 4 3 3 3 2 1 1 1 1 2 2 2 2 2 2 2 2 2 2 2 2 2 2 2 2 2 1 1 1
9 8 9 10 10 9 9 8 7 5 4 4 4 4 4 4 4 3 3 2 1 1 1 1 2 2 2 2 2 2 1 2 2 2 1 1 2 2 3 3 2 1 1
10 10 10 10 11 11 10 9 8 6 5 5 4 3 4 3 2 3 3 3 2 2 2 2 2 2 2 2 2 2 1 2 2 2 2 1 1 2 2 3 3 2 1
11 10 9 10 10 11 11 11 10 7 6 6 5 4 3 3 3 3 2 2 2 2 2 2 2 2 1 2 2 2 1 1 1 1 1 1 1 1 1 2 3 4 2
10 10 9 10 9 10 9 10 9 9 7 6 5 5 3 3 3 3 2 2 2 2 2 2 2 2 2 2 2 1 1 2 1 1 2 1 0 1 1 1 1 2 3
11 10 9 9 9 8 9 9 9 8 7 6 5 5 4 3 3 2 2 2 2 2 3 2 2 2 2 2 2 2 2 2 1 1 2 0 1 1 1 1 1 2 3
9 10 10 8 8 8 9 10 9 9 8 7 6 5 4 4 4 3 2 2 3 2 3 2 2 2 1 2 2 2 2 2 1 1 1 1 1 1 1 1 1 1 2
7 6 6 7 8 8 9 9 10 10 8 7 7 5 4 4 4 3 3 3 3 3 3 3 2 2 1 2 2 2 2 2 2 1 2 1 2 1 1 1 1 1 1
7 6 6 7 7 6 7 8 8 9 9 8 8 7 6 5 4 4 4 4 3 3 3 3 2 2 2 2 2 2 2 2 1 1 2 1 2 2 2 1 1 2 2
7 6 6 6 6 6 5 7 7 8 9 8 8 8 7 6 5 4 4 4 4 4 3 3 2 2 2 2 2 2 2 2 1 1 1 1 1 2 2 2 2 2 2
7 7 6 6 6 7 7 6 7 7 8 8 8 7 7 6 6 5 4 4 4 3 3 3 3 2 2 2 4 3 2 2 2 1 0 0 1 0 2 3 3 4 3
6 7 7 7 7 7 8 8 7 6 7 8 7 7 7 7 6 6 5 5 4 3 3 3 3 2 2 3 4 5 3 2 2 2 1 0 1 0 0 1 1 1 2
5 6 6 5 5 5 6 6 6 5 6 7 7 7 7 7 6 6 6 5 4 4 3 3 3 3 2 3 3 4 2 2 1 2 2 1 1 1 1 1 1 1 1
6 5 5 5 5 6 7 7 6 5 6 6 6 7 7 7 7 7 6 5 4 4 4 4 4 3 3 4 4 4 2 1 1 2 2 2 2 2 2 2 1 1 3
4 4 4 5 5 5 6 6 6 6 6 6 6 6 6 7 7 7 6 5 4 5 4 4 4 4 4 4 5 5 2 1 1 2 2 2 2 3 3 3 2 2 3
3 5 6 5 5 5 6 6 6 6 6 5 5 5 6 6 7 6 5 5 5 4 4 4 3 3 4 4 5 6 3 3 2 2 2 2 3 3 3 4 3 5 3
3 5 5 4 4 5 6 5 5 5 4 4 4 5 5 5 5 5 4 4 5 5 4 4 3 2 3 4 5 6 6 5 4 3 3 3 3 3 3 2 3 3 2
3 3 5 5 3 4 5 6 5 4 4 4 5 5 5 4 4 5 5 4 4 4 4 4 4 3 3 3 6 6 6 6 4 3 3 2 2 2 2 3 2 1 1
2 2 4 5 4 3 3 3 4 5 5 5 5 4 4 4 4 4 4 5 5 4 4 4 4 3 2 3 3 3 3 4 3 2 2 2 2 2 1 1 1 1 2
1 2 3 4 4 4 4 3 4 5 5 4 4 3 3 4 4 3 3 4 4 5 6 5 5 5 4 5 6 5 4 4 3 2 1 0 0 1 1 1 1 1 1
1 2 2 3 3 3 3 3 4 6 6 4 4 3 2 3 3 3 1 1 3 4 6 6 6 5 6 6 7 7 7 6 5 4 2 2 2 3 3 3 2 2 3
Wind_Direction
167 158 152 146 138 135 129 128 126 120 109 101 103 107 119 129 130 148 149 144 140 140 137 139 136 135 139 154 152 137 130 117 117 98 63 29 38 92 113 123 135 158 165
158 160 155 150 146 148 145 138 138 136 131 134 136 134 134 140 145 140 134 143 142 144 143 143 145 142 137 138 141 136 125 123 124 127 111 47 5 4 63 111 145 153 141
167 167 161 159 154 155 156 152 150 145 144 133 105 86 75 65 73 88 116 155 151 147 143 142 140 138 141 154 160 151 143 154 245 159 141 145 198 298 349 354 129 172 165
169 170 167 165 166 167 161 151 153 149 145 135 124 122 126 137 168 162 153 132 135 140 142 143 143 142 142 149 169 163 151 146 164 283 161 159 154 150 165 338 336 224 199
174 176 174 173 171 166 160 155 152 151 148 144 142 135 130 138 123 111 112 106 100 127 136 143 146 144 141 150 164 149 146 152 160 166 162 109 92 122 141 198 301 342 291
179 179 174 167 166 164 159 155 153 158 157 147 139 141 140 133 118 114 119 116 105 87 108 130 141 143 142 151 165 160 150 158 153 152 151 146 148 169 152 170 192 220 285
175 176 174 171 169 167 166 163 161 164 167 154 147 147 145 141 140 143 146 140 123 110 122 135 139 141 151 155 154 151 152 152 150 158 161 159 173 162 154 150 164 180 280
178 177 179 176 173 171 169 166 168 170 171 165 161 153 145 145 147 151 151 155 161 171 158 133 139 144 149 147 139 138 155 143 148 148 147 150 179 157 156 158 150 136 335
177 179 178 176 174 171 172 173 173 173 175 174 163 155 155 150 149 149 140 149 159 161 144 133 134 127 125 122 124 128 152 135 135 147 142 139 180 154 159 152 153 152 166
176 181 182 179 179 177 173 172 174 176 175 173 169 164 168 162 149 138 141 145 152 145 137 129 125 120 111 102 106 112 114 109 103 118 118 125 152 116 132 162 169 159 155
176 180 187 183 175 171 171 172 171 169 171 173 172 167 164 159 151 144 158 156 147 139 139 144 142 130 119 115 113 124 121 112 98 94 107 119 146 117 130 143 145 142 136
172 178 179 173 168 170 175 175 173 174 177 176 170 169 166 160 162 167 167 157 151 144 140 138 135 137 130 126 128 138 124 122 118 126 117 110 105 90 113 121 130 143 149
151 155 159 164 173 176 176 175 176 178 176 170 167 168 170 169 174 178 175 163 152 146 138 132 134 142 137 129 134 134 130 131 138 142 136 146 123 111 113 120 119 137 124
151 152 162 165 167 167 171 173 176 176 173 170 169 174 179 179 179 175 170 167 160 151 147 146 149 152 143 133 137 129 120 117 117 122 131 137 147 163 160 142 145 133 114
157 161 166 165 160 156 160 165 171 174 173 170 175 183 183 176 172 171 172 170 169 169 163 154 150 142 143 152 147 147 135 131 120 95 124 137 136 165 172 161 164 144 140
169 168 165 161 164 167 169 164 165 172 170 176 184 183 177 173 174 174 171 169 172 170 159 166 164 156 165 157 156 150 146 142 145 165 227 25 58 136 180 178 174 166 167
166 170 173 174 175 176 172 172 168 168 170 176 180 179 178 178 178 177 172 176 182 174 164 169 161 170 190 168 160 161 161 162 178 187 197 291 19 22 173 171 130 178 197
162 169 172 173 173 167 166 164 158 159 166 173 179 180 179 182 180 178 182 185 178 172 173 176 176 175 200 186 179 170 163 155 182 185 185 192 260 295 171 136 81 335 280
172 176 170 159 153 152 157 150 155 160 166 172 176 180 178 179 180 184 191 190 179 181 182 178 177 179 207 189 180 167 156 174 234 232 213 197 214 242 167 125 124 301 298
153 151 144 132 140 144 142 143 153 163 179 185 185 180 177 179 185 191 193 190 183 190 186 188 190 191 203 197 184 170 167 185 246 265 255 230 224 227 190 173 186 244 271
140 145 135 141 155 146 142 150 160 182 191 185 182 178 180 184 189 189 189 183 182 184 187 192 202 201 200 201 190 178 178 190 205 231 246 251 238 229 215 199 207 232 243
117 133 132 139 152 147 145 156 177 185 167 163 172 180 182 189 186 180 185 183 181 183 190 187 200 210 206 204 203 195 195 191 189 214 230 237 228 225 225 219 239 245 236
138 130 138 137 138 145 151 166 183 164 155 159 172 181 182 187 184 177 180 181 181 186 193 191 203 215 212 213 207 202 198 196 203 223 222 227 228 224 233 244 247 228 176
120 120 135 141 150 157 168 174 173 163 160 169 176 177 177 184 187 186 184 184 187 191 195 196 203 208 209 208 203 199 199 201 211 236 247 247 244 224 235 257 249 216 199
130 136 154 160 167 166 171 175 167 156 157 165 170 172 182 186 186 188 198 198 202 201 196 202 195 190 211 222 201 187 194 193 194 164 105 63 53 254 269 265 250 239 221
142 143 167 174 172 170 179 182 175 164 161 165 177 177 185 187 182 180 199 246 211 209 206 204 196 208 210 202 203 204 203 194 167 146 180 212 218 220 227 233 245 239 233